FW1466 Weather Reports


Display with metric or nautical units.
time (UTC)temp
F
wind
direction
speed
MPH
gust
MPH
rain 1hr
in
rain 24hr
in
rain mn
in
humidity
%
barometer
mb
20260831163011 78 163 3.0 9.0 0.00 0.06 0.04 82 1014.4
20260831161506 76 173 2.0 6.0 0.00 0.06 0.04 84 1014.4
20260831160003 75 142 2.0 8.0 0.00 0.06 0.04 86 1014.4
20260831154501 74 119 3.0 10.0 0.00 0.06 0.04 88 1014.5
20260831153101 73 150 2.0 8.0 0.00 0.06 0.04 88 1014.6
20260831151559 74 161 1.0 7.0 0.00 0.06 0.04 86 1014.8
20260831150059 74 128 0.0 6.0 0.00 0.06 0.04 87 1015.0
20260831144558 73 124 2.0 9.0 0.00 0.06 0.04 87 1014.7
20260831143112 72 133 1.0 7.0 0.00 0.06 0.04 90 1014.9
20260831141612 71 174 2.0 5.0 0.01 0.06 0.04 92 1014.7
20260831140055 70 138 0.0 4.0 0.01 0.08 0.04 94 1014.7
20260831134557 70 136 1.0 3.0 0.02 0.08 0.04 94 1014.9
20260831133047 69 136 1.0 2.0 0.03 0.08 0.04 94 1014.9
20260831131547 69 137 1.0 6.0 0.02 0.07 0.03 93 1014.6
20260831130053 70 144 0.0 3.0 0.02 0.12 0.03 93 1014.8
20260831124541 70 144 0.0 0.0 0.01 0.11 0.02 92 1014.9
20260831123037 70 144 0.0 0.0 0.00 0.10 0.01 91 1014.7
20260831121536 70 144 0.0 1.0 0.00 0.10 0.01 91 1014.4
20260831120032 70 144 0.0 3.0 0.00 0.12 0.01 92 1013.7
20260831114535 69 161 1.0 5.0 0.01 0.12 0.01 92 1013.7
20260831113025 69 149 0.0 3.0 0.01 0.12 0.01 92 1013.6
20260831111523 70 148 0.0 1.0 0.01 0.12 0.01 91 1013.7
20260831110021 71 149 0.0 2.0 0.01 0.12 0.01 89 1013.7
20260831104518 71 151 0.0 2.0 0.00 0.11 0.00 87 1013.9
20260831103017 71 154 0.0 3.0 0.00 0.11 0.00 87 1013.9
20260831101516 72 152 0.0 1.0 0.00 0.11 0.00 87 1013.9
20260831100016 72 152 0.0 2.0 0.00 0.11 0.00 86 1013.6
20260831094514 72 173 0.0 0.0 0.00 0.11 0.00 87 1013.6
20260831093015 72 132 0.0 4.0 0.00 0.11 0.00 87 1013.7
20260831091511 72 154 0.0 2.0 0.00 0.11 0.00 87 1013.8
20260831090009 72 155 0.0 1.0 0.00 0.11 0.00 87 1013.8
20260831084508 73 153 0.0 3.0 0.00 0.11 0.00 86 1013.8
20260831083009 73 146 0.0 2.0 0.00 0.11 0.00 86 1013.9
20260831081506 73 175 0.0 3.0 0.00 0.11 0.00 86 1013.7
20260831080004 73 192 0.0 3.0 0.00 0.11 0.00 86 1013.8
20260831074503 73 156 0.0 0.0 0.00 0.11 0.00 86 1013.9
20260831073007 73 155 0.0 1.0 0.00 0.11 0.00 86 1014.0
20260831071502 73 155 0.0 2.0 0.00 0.11 0.00 86 1014.1
20260831070101 73 131 0.0 3.0 0.00 0.11 0.00 87 1013.9
20260831064559 74 148 0.0 3.0 0.00 0.11 0.00 87 1014.2
20260831063058 74 71 0.0 2.0 0.00 0.11 0.00 87 1014.1
20260831061601 74 161 0.0 3.0 0.00 0.11 0.00 88 1013.9
20260831060105 74 165 0.0 1.0 0.00 0.11 0.00 88 1014.0
20260831054555 74 167 0.0 5.0 0.00 0.11 0.00 88 1014.0
20260831053054 74 200 0.0 4.0 0.00 0.11 0.00 90 1014.0
20260831051604 74 118 1.0 5.0 0.00 0.11 0.00 90 1014.1
20260831050050 74 138 0.0 3.0 0.00 0.11 0.11 91 1014.2
20260831044550 74 176 0.0 3.0 0.00 0.11 0.11 92 1014.3
20260831043050 74 150 0.0 3.0 0.00 0.11 0.11 93 1014.4
20260831041548 74 148 0.0 2.0 0.00 0.11 0.11 94 1014.5
20260831040048 74 160 0.0 3.0 0.00 0.11 0.11 95 1014.6
20260831034547 74 161 0.0 5.0 0.00 0.11 0.11 96 1014.7
20260831033047 73 220 0.0 2.0 0.00 0.11 0.11 97 1014.8
20260831031547 73 347 0.0 4.0 0.00 0.11 0.11 97 1015.4
20260831024610 73 172 0.0 0.0 0.00 0.11 0.11 97 1015.0
20260831023045 73 143 0.0 0.0 0.00 0.11 0.11 97 1015.1
20260831021544 73 143 0.0 0.0 0.00 0.11 0.11 97 1015.1
20260831020043 74 143 0.0 0.0 0.00 0.11 0.11 96 1015.2
20260831014543 74 143 0.0 0.0 0.00 0.11 0.11 95 1015.3
20260831013054 74 143 0.0 0.0 0.00 0.11 0.11 95 1015.2
20260831011542 74 143 0.0 0.0 0.00 0.11 0.11 94 1014.9
20260831010042 74 143 0.0 0.0 0.00 0.11 0.11 94 1015.1
20260831004641 74 144 0.0 0.0 0.00 0.11 0.11 93 1014.8
20260831003040 74 144 0.0 4.0 0.00 0.11 0.11 94 1014.5
20260831001540 74 163 1.0 5.0 0.00 0.11 0.11 94 1014.4
20260831000039 74 128 1.0 3.0 0.00 0.11 0.11 95 1014.8
20260830234539 74 123 0.0 3.0 0.01 0.11 0.11 95 1015.1
20260830233038 74 123 0.0 0.0 0.01 0.11 0.11 95 1015.2
20260830231539 74 123 0.0 2.0 0.01 0.11 0.11 95 1015.0
20260830230038 74 121 0.0 1.0 0.01 0.11 0.11 94 1014.7
20260830224541 75 121 0.0 1.0 0.00 0.10 0.10 94 1015.2
20260830223038 75 121 0.0 0.0 0.01 0.10 0.10 93 1015.5
20260830221539 75 121 0.0 0.0 0.01 0.10 0.10 92 1015.7
20260830220034 76 121 0.0 0.0 0.01 0.10 0.10 89 1015.6
20260830214532 77 121 0.0 0.0 0.01 0.10 0.10 86 1015.3
20260830213034 78 121 0.0 1.0 0.00 0.09 0.09 85 1015.1
20260830211533 78 121 0.0 3.0 0.00 0.09 0.09 83 1015.4
20260830210032 78 163 0.0 3.0 0.00 0.09 0.09 82 1015.5
20260830204532 78 144 0.0 3.0 0.00 0.09 0.09 82 1015.5
20260830203037 77 203 1.0 3.0 0.00 0.09 0.09 84 1015.3
20260830201541 77 168 0.0 0.0 0.00 0.09 0.09 89 1015.6
20260830200028 77 168 0.0 0.0 0.00 0.09 0.09 84 1015.9
20260830194528 78 168 0.0 0.0 0.00 0.09 0.09 81 1016.2
20260830193028 79 167 0.0 4.0 0.00 0.09 0.09 78 1015.7
20260830191527 79 180 0.0 3.0 0.00 0.09 0.09 77 1015.6
20260830190033 80 192 0.0 3.0 0.00 0.09 0.09 77 1015.3
20260830184525 81 190 1.0 2.0 0.00 0.09 0.09 75 1015.2
20260830183024 82 198 1.0 4.0 0.00 0.09 0.09 73 1015.1
20260830181524 83 138 3.0 9.0 0.00 0.09 0.09 73 1014.4
20260830180020 83 149 1.0 7.0 0.00 0.09 0.09 75 1014.2
20260830174516 81 157 1.0 7.0 0.00 0.09 0.09 76 1014.4
20260830173012 79 77 2.0 11.0 0.00 0.09 0.09 77 1014.7
20260830171511 78 167 1.0 10.0 0.00 0.09 0.09 80 1014.8
20260830170008 77 277 2.0 8.0 0.00 0.09 0.09 81 1014.8
20260830164503 75 234 1.0 4.0 0.00 0.09 0.09 86 1015.0